Location: Breezy Point Observatory
(38.9725°N, 81.7133°W)
Time: 23:19:15
(UTC-05:00)

Hubble Space Telescope - Visible Passes

Search period start: 03 March 2015 00:00
Search period end: 13 March 2015 01:00
Orbit: 543 x 548 km, 28.5° (Epoch: 03 March)

Date Brightness Start Highest point End Pass type
(mag) Time Alt. Az. Time Alt. Az. Time Alt. Az.
03 Mar 2.6 05:19:59 18° SSW 05:20:15 18° S 05:23:04 10° SE visible
04 Mar 2.8 05:12:16 16° S 05:12:16 16° S 05:14:35 10° SSE visible
05 Mar 3.1 05:04:35 14° S 05:04:35 14° S 05:05:58 10° SSE visible
06 Mar 3.4 04:56:57 11° S 04:56:57 11° S 04:57:12 10° SSE visible
